RYR2WH LFBO-GMFF

Flight info

Callsign RYR2WH
Flight time N/A
Altitude 35000
Route GAUDE DCT ANETO DCT TURUV DCT GRAUS DCT LOBAR DCT SEROX DCT CASPE DCT MLA DCT CRETA DCT RIMES DCT SAURA DCT TATOS DCT PLANA DCT VLC DCT BEGOX DCT NARGO DCT RESTU DCT DOSEK DCT AMR DCT GONZA DCT BERUM UG850 FES
Aircraft B738/M-SDE3FGILRWY/SB1

Departure

Time 2026-05-07 15:15
Airport Toulouse-Blagnac Airport (LFBO)

Arrival

Time N/A
Airport Fes Saïss International Airport (GMFF)
Time Latitude Longitude Altitude Speed Heading
2026-05-07 14:51 43.63193 1.36931 483 ft 0 kts 105°
2026-05-07 15:04 43.63196 1.36916 493 ft 4 kts 105°
2026-05-07 15:04 43.63203 1.36880 489 ft 4 kts 106°
2026-05-07 15:04 43.63211 1.36845 484 ft 4 kts 108°
2026-05-07 15:04 43.63220 1.36810 488 ft 4 kts 117°
2026-05-07 15:05 43.63234 1.36783 482 ft 2 kts 143°
2026-05-07 15:05 43.63235 1.36782 482 ft 1 kts 143°
2026-05-07 15:06 43.63234 1.36783 482 ft 1 kts 143°
2026-05-07 15:07 43.63218 1.36799 487 ft 5 kts 147°
2026-05-07 15:07 43.63184 1.36821 491 ft 6 kts 159°
2026-05-07 15:07 43.63148 1.36837 486 ft 6 kts 175°
2026-05-07 15:07 43.63115 1.36812 484 ft 5 kts 225°
2026-05-07 15:08 43.63083 1.36785 490 ft 6 kts 193°
2026-05-07 15:08 43.63042 1.36798 487 ft 7 kts 150°
2026-05-07 15:08 43.62988 1.36853 493 ft 11 kts 142°
2026-05-07 15:08 43.62923 1.36919 493 ft 12 kts 143°
2026-05-07 15:09 43.62860 1.36986 493 ft 11 kts 142°
2026-05-07 15:09 43.62798 1.37050 487 ft 11 kts 142°
2026-05-07 15:09 43.62738 1.37112 493 ft 11 kts 143°
2026-05-07 15:09 43.62679 1.37173 490 ft 10 kts 143°
2026-05-07 15:10 43.62620 1.37235 490 ft 11 kts 143°
2026-05-07 15:10 43.62552 1.37306 493 ft 13 kts 143°
2026-05-07 15:10 43.62474 1.37386 493 ft 15 kts 143°
2026-05-07 15:10 43.62388 1.37476 489 ft 16 kts 143°
2026-05-07 15:11 43.62295 1.37574 493 ft 18 kts 143°
2026-05-07 15:11 43.62198 1.37674 489 ft 17 kts 143°
2026-05-07 15:11 43.62102 1.37772 493 ft 17 kts 143°
2026-05-07 15:11 43.62010 1.37866 489 ft 16 kts 143°
2026-05-07 15:12 43.61923 1.37958 488 ft 16 kts 143°
2026-05-07 15:12 43.61838 1.38045 485 ft 15 kts 142°
2026-05-07 15:12 43.61769 1.38118 489 ft 6 kts 143°
2026-05-07 15:12 43.61734 1.38155 493 ft 6 kts 143°
2026-05-07 15:13 43.61697 1.38182 490 ft 6 kts 185°
2026-05-07 15:13 43.61655 1.38168 493 ft 6 kts 214°
2026-05-07 15:13 43.61630 1.38120 490 ft 6 kts 236°
2026-05-07 15:13 43.61604 1.38074 491 ft 6 kts 232°
2026-05-07 15:14 43.61586 1.38024 488 ft 6 kts 266°
2026-05-07 15:14 43.61608 1.37978 491 ft 6 kts 320°
2026-05-07 15:14 43.61642 1.37941 493 ft 11 kts 322°
2026-05-07 15:14 43.61890 1.37682 493 ft 78 kts 323°
2026-05-07 15:15 43.62490 1.37058 484 ft 136 kts 323°
2026-05-07 15:15 43.63366 1.36149 596 ft 173 kts 325°
2026-05-07 15:15 43.64312 1.35167 1369 ft 166 kts 324°
2026-05-07 15:15 43.65258 1.34111 1778 ft 187 kts 324°
2026-05-07 15:16 43.65945 1.33339 2071 ft 194 kts 323°
2026-05-07 15:16 43.66989 1.32266 3037 ft 179 kts 325°
2026-05-07 15:16 43.67959 1.31217 3804 ft 182 kts 323°
2026-05-07 15:16 43.68857 1.29793 4076 ft 211 kts 302°
2026-05-07 15:17 43.69240 1.27750 4252 ft 234 kts 267°
2026-05-07 15:17 43.68828 1.25505 4550 ft 250 kts 242°
2026-05-07 15:17 43.67667 1.23719 5128 ft 253 kts 216°
2026-05-07 15:17 43.66205 1.22355 5712 ft 255 kts 215°
2026-05-07 15:18 43.64715 1.21015 6274 ft 260 kts 215°
2026-05-07 15:18 43.63136 1.19607 6627 ft 277 kts 215°
2026-05-07 15:18 43.61517 1.18163 7390 ft 277 kts 214°
2026-05-07 15:18 43.59919 1.16740 8217 ft 275 kts 215°
2026-05-07 15:19 43.58325 1.15312 9036 ft 276 kts 214°
2026-05-07 15:19 43.56716 1.13877 9886 ft 275 kts 214°
2026-05-07 15:19 43.55084 1.12420 10384 ft 288 kts 214°
2026-05-07 15:19 43.53336 1.10859 10545 ft 311 kts 214°
2026-05-07 15:20 43.51469 1.09190 10855 ft 326 kts 214°
2026-05-07 15:20 43.49545 1.07473 11451 ft 332 kts 214°
2026-05-07 15:20 43.47599 1.05737 12213 ft 334 kts 213°
2026-05-07 15:20 43.45636 1.03987 12954 ft 337 kts 213°
2026-05-07 15:21 43.43659 1.02226 13714 ft 340 kts 213°
2026-05-07 15:21 43.41662 1.00449 14402 ft 344 kts 213°
2026-05-07 15:21 43.39715 0.98718 15055 ft 347 kts 213°
2026-05-07 15:21 43.37677 0.96907 15734 ft 351 kts 213°
2026-05-07 15:22 43.35617 0.95077 16418 ft 354 kts 213°
2026-05-07 15:22 43.33536 0.93231 17104 ft 358 kts 213°
2026-05-07 15:22 43.31433 0.91366 17699 ft 364 kts 213°
2026-05-07 15:22 43.29285 0.89463 18249 ft 370 kts 213°
2026-05-07 15:23 43.27110 0.87538 18822 ft 373 kts 213°
2026-05-07 15:23 43.24923 0.85606 19459 ft 374 kts 213°
2026-05-07 15:23 43.22727 0.83665 20079 ft 376 kts 213°
2026-05-07 15:23 43.20516 0.81715 20647 ft 379 kts 213°
2026-05-07 15:24 43.18287 0.79749 21210 ft 382 kts 213°
2026-05-07 15:24 43.16043 0.77773 21769 ft 385 kts 213°
2026-05-07 15:24 43.13813 0.75810 22316 ft 388 kts 213°
2026-05-07 15:24 43.11540 0.73812 22903 ft 389 kts 213°
2026-05-07 15:25 43.09253 0.71804 23450 ft 392 kts 213°
2026-05-07 15:25 43.06955 0.69787 23887 ft 394 kts 213°
2026-05-07 15:25 43.04637 0.67754 24337 ft 396 kts 213°
2026-05-07 15:25 43.02315 0.65727 24814 ft 397 kts 212°
2026-05-07 15:26 42.99839 0.64036 25255 ft 399 kts 203°
2026-05-07 15:26 42.97186 0.62872 25715 ft 402 kts 194°
2026-05-07 15:26 42.94430 0.62143 26094 ft 405 kts 192°
2026-05-07 15:26 42.91644 0.61456 26431 ft 408 kts 192°
2026-05-07 15:27 42.88851 0.60770 26882 ft 408 kts 192°
2026-05-07 15:27 42.86059 0.60074 27306 ft 409 kts 193°
2026-05-07 15:27 42.83257 0.59367 27709 ft 410 kts 193°
2026-05-07 15:27 42.80442 0.58650 28085 ft 413 kts 193°
2026-05-07 15:28 42.77612 0.57928 28503 ft 414 kts 193°
2026-05-07 15:28 42.74791 0.57201 29034 ft 412 kts 193°
2026-05-07 15:28 42.71979 0.56478 29560 ft 410 kts 193°
2026-05-07 15:28 42.69182 0.55761 30134 ft 407 kts 193°
2026-05-07 15:29 42.66409 0.55050 30601 ft 405 kts 193°
2026-05-07 15:29 42.63649 0.54340 31039 ft 404 kts 193°
2026-05-07 15:29 42.60890 0.53631 31408 ft 403 kts 193°
2026-05-07 15:29 42.58146 0.52928 31898 ft 400 kts 193°
2026-05-07 15:30 42.55421 0.52232 32335 ft 398 kts 193°
2026-05-07 15:30 42.52702 0.51537 32671 ft 398 kts 193°
2026-05-07 15:30 42.49977 0.50842 33014 ft 398 kts 193°
2026-05-07 15:30 42.47259 0.50150 33383 ft 397 kts 193°
2026-05-07 15:31 42.44546 0.49462 33733 ft 395 kts 193°
2026-05-07 15:31 42.41844 0.48776 34048 ft 395 kts 193°
2026-05-07 15:31 42.39139 0.48087 34306 ft 395 kts 193°
2026-05-07 15:31 42.36445 0.47403 34619 ft 394 kts 193°
2026-05-07 15:32 42.33745 0.46713 34822 ft 396 kts 194°
2026-05-07 15:32 42.31031 0.46016 34928 ft 399 kts 194°
2026-05-07 15:32 42.25544 0.44608 34921 ft 402 kts 194°
2026-05-07 15:33 42.20097 0.43221 34921 ft 394 kts 194°
2026-05-07 15:33 42.14740 0.41860 34934 ft 390 kts 194°
2026-05-07 15:34 42.09412 0.40507 34925 ft 388 kts 194°
2026-05-07 15:34 42.04104 0.39164 34925 ft 388 kts 194°
2026-05-07 15:35 41.98801 0.37821 34929 ft 390 kts 193°
2026-05-07 15:35 41.93408 0.36457 34930 ft 399 kts 194°
2026-05-07 15:36 41.87939 0.35081 34913 ft 400 kts 193°
2026-05-07 15:36 41.82468 0.33712 34916 ft 400 kts 193°
2026-05-07 15:37 41.76998 0.32343 34907 ft 400 kts 194°
2026-05-07 15:37 41.71578 0.30989 34913 ft 398 kts 194°
2026-05-07 15:38 41.66152 0.29640 34913 ft 395 kts 194°
2026-05-07 15:38 41.60760 0.28306 34916 ft 393 kts 194°
2026-05-07 15:39 41.55394 0.26981 34914 ft 391 kts 194°
2026-05-07 15:39 41.50060 0.25666 34934 ft 389 kts 194°
2026-05-07 15:40 41.44750 0.24360 34929 ft 387 kts 193°
2026-05-07 15:40 41.39452 0.23060 34939 ft 387 kts 194°
2026-05-07 15:41 41.34166 0.21761 34928 ft 386 kts 193°
2026-05-07 15:41 41.28885 0.20424 34940 ft 386 kts 194°
2026-05-07 15:42 41.23596 0.19096 34931 ft 387 kts 193°
2026-05-07 15:42 41.18298 0.17796 34935 ft 387 kts 193°
2026-05-07 15:43 41.12998 0.16480 34923 ft 388 kts 195°
2026-05-07 15:43 41.07825 0.14526 34929 ft 387 kts 199°
2026-05-07 15:44 41.02684 0.12391 34938 ft 387 kts 199°
2026-05-07 15:44 40.97525 0.10303 34938 ft 389 kts 199°
2026-05-07 15:45 40.92347 0.08240 34937 ft 389 kts 199°
2026-05-07 15:45 40.87160 0.06177 34943 ft 389 kts 199°
2026-05-07 15:46 40.79413 0.03057 34943 ft 390 kts 199°
2026-05-07 15:47 40.74218 0.00964 34942 ft 390 kts 199°
2026-05-07 15:47 40.69140 -0.01074 34952 ft 391 kts 199°
2026-05-07 15:48 40.63927 -0.03159 34957 ft 392 kts 199°
2026-05-07 15:48 40.58680 -0.05256 34943 ft 395 kts 199°
2026-05-07 15:49 40.53408 -0.07359 34938 ft 397 kts 199°
2026-05-07 15:49 40.48109 -0.09456 34934 ft 399 kts 199°
2026-05-07 15:50 40.42779 -0.11557 34923 ft 401 kts 199°
2026-05-07 15:50 40.37430 -0.13663 34917 ft 402 kts 199°
2026-05-07 15:51 40.32068 -0.15768 34914 ft 402 kts 199°
2026-05-07 15:51 40.26704 -0.17874 34911 ft 402 kts 199°
2026-05-07 15:52 40.21345 -0.19987 34914 ft 402 kts 199°
2026-05-07 15:52 40.15995 -0.22107 34928 ft 402 kts 199°
2026-05-07 15:53 40.10646 -0.24219 34928 ft 402 kts 199°
2026-05-07 15:53 40.05336 -0.26308 34944 ft 401 kts 199°
2026-05-07 15:54 39.99994 -0.28409 34934 ft 401 kts 200°
2026-05-07 15:54 39.94646 -0.30475 34944 ft 401 kts 199°
2026-05-07 15:55 39.89288 -0.32535 34943 ft 402 kts 199°
2026-05-07 15:55 39.83922 -0.34620 34937 ft 403 kts 200°
2026-05-07 15:56 39.78551 -0.36718 34928 ft 403 kts 200°
2026-05-07 15:56 39.73172 -0.38810 34935 ft 404 kts 200°
2026-05-07 15:57 39.67789 -0.40897 34950 ft 404 kts 200°
2026-05-07 15:57 39.62390 -0.42987 34937 ft 405 kts 200°
2026-05-07 15:58 39.56980 -0.45075 34925 ft 406 kts 200°
2026-05-07 15:58 39.51565 -0.47164 34940 ft 406 kts 200°
2026-05-07 15:59 39.46325 -0.49776 34938 ft 402 kts 211°
2026-05-07 15:59 39.41419 -0.53256 34934 ft 402 kts 212°
2026-05-07 16:00 39.36503 -0.56724 34939 ft 403 kts 211°
2026-05-07 16:00 39.31571 -0.60161 34942 ft 403 kts 212°
2026-05-07 16:01 39.26624 -0.63592 34956 ft 404 kts 212°
2026-05-07 16:01 39.21693 -0.67004 34953 ft 406 kts 212°
2026-05-07 16:02 39.16708 -0.70446 34947 ft 407 kts 212°
2026-05-07 16:02 39.11710 -0.73893 34926 ft 407 kts 212°
2026-05-07 16:03 39.06719 -0.77329 34965 ft 407 kts 214°
2026-05-07 16:03 39.01727 -0.80769 34960 ft 407 kts 214°
2026-05-07 16:04 38.96744 -0.84201 34953 ft 406 kts 214°
2026-05-07 16:04 38.92605 -0.87044 34967 ft 406 kts 214°
2026-05-07 16:05 38.87617 -0.90463 34926 ft 406 kts 214°
2026-05-07 16:05 38.82632 -0.93874 34947 ft 406 kts 214°
2026-05-07 16:06 38.77645 -0.97281 34960 ft 406 kts 214°
2026-05-07 16:06 38.72742 -1.00628 34958 ft 407 kts 214°
2026-05-07 16:07 38.67742 -1.04041 34959 ft 407 kts 214°
2026-05-07 16:07 38.62742 -1.07446 34944 ft 408 kts 214°
2026-05-07 16:08 38.57735 -1.10849 34952 ft 408 kts 214°
2026-05-07 16:08 38.52725 -1.14247 34958 ft 407 kts 214°
2026-05-07 16:09 38.47716 -1.17638 34961 ft 408 kts 216°
2026-05-07 16:09 38.42696 -1.21034 34958 ft 408 kts 216°
2026-05-07 16:10 38.37669 -1.24427 34958 ft 409 kts 216°
2026-05-07 16:10 38.32639 -1.27817 34956 ft 409 kts 216°
2026-05-07 16:11 38.27604 -1.31206 34949 ft 410 kts 216°
2026-05-07 16:11 38.22563 -1.34592 34938 ft 410 kts 216°
2026-05-07 16:12 38.17530 -1.37968 34908 ft 409 kts 216°
2026-05-07 16:12 38.12512 -1.41325 34937 ft 407 kts 216°
2026-05-07 16:13 38.07543 -1.44649 34958 ft 406 kts 216°
2026-05-07 16:13 38.02513 -1.48007 34949 ft 406 kts 216°
2026-05-07 16:14 37.97550 -1.51314 34944 ft 407 kts 216°
2026-05-07 16:14 37.92529 -1.54654 34937 ft 408 kts 218°
2026-05-07 16:15 37.87462 -1.58000 34939 ft 412 kts 218°
2026-05-07 16:15 37.82360 -1.61311 34940 ft 412 kts 217°
2026-05-07 16:16 37.77257 -1.64610 34942 ft 412 kts 217°
2026-05-07 16:16 37.72172 -1.67898 34940 ft 412 kts 217°
2026-05-07 16:17 37.67076 -1.71190 34927 ft 410 kts 218°